DW9924 Weather Reports


time (UTC)temp
C
wind
direction
speed
KPH
gust
KPH
rain 1hr
cm
rain 24hr
cm
rain mn
cm
humidity
%
barometer
mb
20260507001906 15 140 3.2 9.7 0.00 3.15 0.00 77 1012.2
20260507001406 15 138 3.2 8.0 0.00 3.15 0.00 77 1012.3
20260507000906 16 128 3.2 11.3 0.00 3.15 0.00 77 1012.3
20260507000406 16 119 1.6 12.9 0.00 3.15 0.00 77 1012.3
20260506234408 16 141 6.4 12.9 0.00 3.15 0.00 76 1012.4
20260506233406 15 149 3.2 8.0 0.00 3.15 0.00 76 1012.4
20260506231913 15 109 1.6 4.8 0.00 3.15 0.00 76 1012.5
20260506231407 15 104 3.2 4.8 0.00 3.15 0.00 76 1012.4
20260506230906 15 113 3.2 8.0 0.00 3.15 0.00 76 1012.4
20260506230409 15 130 3.2 11.3 0.00 3.15 0.00 76 1012.4
20260506224405 15 115 1.6 11.3 0.00 3.15 0.00 76 1012.4
20260506223907 15 129 3.2 9.7 0.00 3.15 0.00 76 1012.4
20260506223408 15 142 3.2 11.3 0.00 3.15 0.00 76 1012.4
20260506221911 15 137 1.6 4.8 0.00 3.15 0.00 76 1012.4
20260506221427 15 119 3.2 9.7 0.00 3.15 0.00 76 1012.3
20260506220906 15 122 1.6 4.8 0.00 3.15 0.00 76 1012.4
20260506220405 15 104 3.2 8.0 0.00 3.15 0.00 76 1012.4
20260506214909 15 134 3.2 8.0 0.00 3.15 3.15 77 1012.4
20260506213905 15 144 3.2 4.8 0.00 3.15 3.15 78 1012.4
20260506213405 15 129 3.2 11.3 0.00 3.15 3.15 78 1012.4
20260506211906 15 145 1.6 8.0 0.00 3.15 3.15 78 1012.3
20260506211405 15 104 1.6 9.7 0.00 3.15 3.15 78 1012.4
20260506210906 15 141 4.8 12.9 0.00 3.15 3.15 78 1012.4
20260506210409 15 147 1.6 8.0 0.00 3.15 3.15 78 1012.3
20260506204906 15 109 3.2 4.8 0.00 3.15 3.15 78 1012.3
20260506204406 15 106 1.6 4.8 0.00 3.15 3.15 78 1012.2
20260506203905 15 114 3.2 12.9 0.00 3.15 3.15 78 1012.2
20260506203405 15 126 1.6 8.0 0.00 3.15 3.15 78 1012.2
20260506201906 15 108 3.2 8.0 0.00 3.15 3.15 78 1012.2
20260506201405 15 109 1.6 8.0 0.00 3.15 3.15 79 1012.2
20260506200405 16 133 1.6 9.7 0.00 3.15 3.15 79 1012.1
20260506194906 16 110 3.2 4.8 0.00 3.15 3.15 80 1011.9
20260506194406 16 90 1.6 4.8 0.00 3.15 3.15 80 1011.8
20260506193406 16 160 1.6 9.7 0.00 3.15 3.15 80 1011.8
20260506191905 16 118 4.8 11.3 0.00 3.15 3.15 80 1011.5
20260506191405 16 159 3.2 11.3 0.00 3.15 3.15 81 1011.4
20260506190906 16 149 3.2 4.8 0.00 3.15 3.15 81 1011.3
20260506184905 16 140 3.2 9.7 0.00 3.15 3.15 81 1011.1
20260506184406 16 133 4.8 11.3 0.00 3.15 3.15 81 1011.1
20260506183408 16 133 4.8 12.9 0.00 3.15 3.15 81 1011.0
20260506181906 16 175 3.2 8.0 0.00 3.15 3.15 80 1010.8
20260506181405 16 135 4.8 9.7 0.00 3.15 3.15 81 1010.8
20260506180405 16 125 3.2 12.9 0.00 3.15 3.15 80 1010.5
20260506174408 16 130 4.8 14.5 0.00 3.15 3.15 79 1010.5
20260506173920 16 129 4.8 11.3 0.00 3.15 3.15 79 1010.5
20260506173405 16 151 4.8 12.9 0.00 3.15 3.15 79 1010.5
20260506171905 17 180 4.8 11.3 0.00 3.15 3.15 77 1010.4
20260506171405 17 156 6.4 12.9 0.00 3.15 3.15 77 1010.3
20260506170906 17 152 4.8 12.9 0.00 3.15 3.15 77 1010.3
20260506170405 17 124 4.8 14.5 0.00 3.15 3.15 77 1010.2
20260506164905 17 110 3.2 12.9 0.00 3.15 3.15 76 1010.3
20260506164406 17 161 6.4 12.9 0.00 3.15 3.15 77 1010.3
20260506163905 17 147 4.8 9.7 0.00 3.15 3.15 77 1010.4
20260506163405 17 148 4.8 11.3 0.00 3.15 3.15 78 1010.4
20260506161913 17 134 3.2 11.3 0.00 3.15 3.15 77 1010.3
20260506161404 17 140 4.8 12.9 0.00 3.15 3.15 77 1010.3
20260506160905 17 156 8.0 12.9 0.00 3.15 3.15 77 1010.3
20260506160405 17 158 4.8 14.5 0.00 3.15 3.15 77 1010.2
20260506154904 18 149 8.0 14.5 0.00 3.15 3.15 77 1010.2
20260506154405 18 192 3.2 11.3 0.00 3.15 3.15 79 1010.2
20260506153905 18 134 9.7 19.3 0.00 3.15 3.15 80 1010.2
20260506153404 17 141 8.0 14.5 0.00 3.15 3.15 79 1010.1
20260506151904 17 168 3.2 11.3 0.00 3.15 3.15 79 1010.2
20260506151407 17 163 4.8 11.3 0.00 3.15 3.15 78 1010.2
20260506150910 17 152 4.8 14.5 0.00 3.15 3.15 78 1010.3
20260506144904 18 197 1.6 4.8 0.00 3.15 3.15 79 1010.2
20260506144405 18 160 3.2 9.7 0.00 3.15 3.15 76 1010.1
20260506143905 18 181 3.2 8.0 0.00 3.15 3.15 75 1010.1
20260506143405 19 205 3.2 9.7 0.00 3.15 3.15 74 1010.1
20260506141904 20 142 4.8 9.7 0.00 3.15 3.15 73 1010.2
20260506141405 20 222 1.6 8.0 0.00 3.15 3.15 74 1010.2
20260506140405 20 196 1.6 8.0 0.00 3.15 3.15 75 1010.2
20260506134405 19 214 1.6 4.8 0.00 3.15 3.15 76 1010.3
20260506133905 19 236 1.6 12.9 0.00 3.15 3.15 78 1010.3
20260506133405 18 227 8.0 12.9 0.00 3.15 3.15 76 1010.4
20260506131904 18 243 4.8 12.9 0.00 3.15 3.15 79 1010.4
20260506131405 19 145 1.6 9.7 0.00 3.15 3.15 80 1010.4
20260506130907 19 141 4.8 9.7 0.00 3.15 3.15 81 1010.3
20260506130407 18 151 4.8 12.9 0.00 3.15 3.15 81 1010.3
20260506124905 18 186 4.8 8.0 0.00 3.15 3.15 81 1010.3
20260506123905 18 167 6.4 11.3 0.00 3.15 3.15 83 1010.2
20260506123405 18 171 4.8 12.9 0.00 3.15 3.15 83 1010.2
20260506121904 18 160 4.8 11.3 0.00 3.15 3.15 82 1010.1
20260506120904 18 161 4.8 11.3 0.00 3.15 3.15 82 1010.1
20260506120404 18 156 4.8 12.9 0.00 3.15 3.15 81 1010.0
20260506114904 19 163 3.2 11.3 0.00 3.15 3.15 80 1010.0
20260506114404 19 123 3.2 11.3 0.00 3.15 3.15 80 1010.0
20260506111920 18 137 1.6 8.0 0.00 3.15 3.15 84 1010.0
20260506110905 17 184 3.2 11.3 0.00 3.15 3.15 83 1010.0
20260506110404 18 167 4.8 9.7 0.00 3.15 3.15 82 1010.0
20260506104905 18 149 4.8 8.0 0.00 3.15 3.15 82 1010.1
20260506103904 18 174 3.2 4.8 0.00 3.15 3.15 81 1010.0
20260506103404 18 234 3.2 8.0 0.00 3.15 3.15 81 1010.1
20260506101404 17 233 3.2 4.8 0.00 3.15 3.15 84 1010.1
20260506100910 17 187 1.6 4.8 0.00 3.15 3.15 84 1010.0
20260506094905 17 221 3.2 4.8 0.00 3.15 3.15 85 1009.9
20260506094405 17 193 1.6 4.8 0.00 3.15 3.15 85 1009.9
20260506093405 17 230 1.6 8.0 0.00 3.15 3.15 86 1010.0
20260506091909 17 249 1.6 8.0 0.00 3.15 3.15 87 1009.8
20260506091407 17 215 1.6 4.8 0.00 3.15 3.15 86 1009.7
20260506090906 17 221 3.2 9.7 0.00 3.15 3.15 86 1009.7
20260506090410 17 249 1.6 9.7 0.00 3.15 3.15 87 1009.5
20260506084907 18 229 1.6 14.5 0.00 3.15 3.15 88 1009.4
20260506084407 18 251 4.8 8.0 0.00 3.15 3.15 88 1009.4
20260506083909 17 195 3.2 12.9 0.00 3.15 3.15 89 1009.3
20260506083407 17 203 3.2 19.3 0.00 3.15 3.15 91 1009.3
20260506081908 17 114 3.2 4.8 0.00 3.15 3.15 91 1009.1
20260506081407 17 74 4.8 12.9 0.00 3.15 3.15 92 1009.1
20260506080908 17 227 4.8 14.5 0.00 3.15 3.15 92 1009.0
20260506080406 17 279 4.8 22.5 0.00 3.15 3.15 92 1009.1
20260506073407 16 146 11.3 22.5 0.03 3.17 3.15 91 1009.0
20260506071906 16 143 11.3 22.5 0.18 3.17 3.15 91 1008.8
20260506071406 16 151 14.5 24.1 0.18 3.17 3.15 91 1008.9
20260506070407 16 150 11.3 24.1 0.18 3.17 3.15 91 1008.9
20260506061906 16 174 8.0 19.3 0.00 3.10 2.97 88 1008.5
20260506061406 16 147 8.0 19.3 0.00 3.15 2.97 88 1008.4
20260506060906 16 139 9.7 19.3 0.00 3.20 2.97 88 1008.6
20260506051406 15 90 4.8 16.1 0.03 4.70 2.97 88 1008.6
20260506050407 15 143 3.2 14.5 0.03 4.83 2.97 88 1008.4
20260506044907 15 49 1.6 4.8 0.05 5.16 2.97 88 1008.5
20260506044407 15 92 3.2 4.8 0.05 5.26 2.97 88 1008.5
20260506043907 15 45 3.2 4.8 0.05 5.31 2.97 88 1008.6
20260506043406 15 31 1.6 8.0 0.05 5.38 2.97 88 1008.5
20260506041906 15 37 3.2 4.8 0.05 5.44 2.97 87 1008.8
20260506041406 15 113 3.2 11.3 0.05 5.44 2.97 87 1008.8
20260506040906 15 37 4.8 9.7 0.05 5.46 2.97 87 1008.8
20260506040406 15 27 4.8 12.9 0.05 5.56 2.97 87 1009.0
20260506034407 14 29 4.8 11.3 0.05 5.87 2.92 87 1008.9
20260506033906 14 36 4.8 11.3 0.18 5.97 2.92 87 1008.8
20260506033407 13 40 4.8 14.5 0.41 5.97 2.92 87 1008.8
20260506031907 13 18 9.7 20.9 0.94 6.10 2.92 89 1008.7
20260506031409 13 58 8.0 19.3 1.27 6.15 2.92 89 1008.6
20260506030906 13 78 3.2 8.0 1.63 6.15 2.92 89 1008.8
20260506024906 14 273 0.0 4.8 2.34 6.12 2.90 89 1009.0
20260506023906 14 58 1.6 4.8 2.24 5.97 2.74 89 1010.0
20260506021906 15 343 3.2 4.8 1.75 5.33 1.98 89 1009.6
20260506020906 15 315 3.2 9.7 1.14 4.70 1.30 89 1009.7
20260506020406 15 327 1.6 3.2 0.69 4.22 0.79 88 1010.0
20260506013410 15 328 1.6 8.0 0.43 3.91 0.43 87 1010.4
20260506011908 15 36 1.6 4.8 0.20 3.71 0.23 86 1010.3
20260506011406 15 107 1.6 4.8 0.15 3.68 0.18 86 1010.4
20260506010906 15 24 3.2 12.9 0.15 3.68 0.15 86 1010.2
20260506010406 15 40 3.2 9.7 0.13 3.63 0.13 85 1010.1
20260506004909 16 49 1.6 4.8 0.05 3.58 0.05 85 1010.3
20260506004406 16 109 1.6 3.2 0.03 3.56 0.03 84 1010.5
20260506003906 16 104 1.6 4.8 0.03 3.56 0.03 84 1010.5
20260506003407 16 109 3.2 9.7 0.03 3.56 0.03 84 1010.5